Port Edwards, WI

5:07 PM CST on December 06, 2016 (GMT -0600)
Alexander Field South Wood County

Weather History for KISW - December, 2012

Change the Weather History Date:

Thursday, December 13, 2012

  Actual Average Record
Temperature  
Mean Temperature 30 °F -  
Max Temperature 39 °F 30 °F 55 °F (2015)
Min Temperature 21 °F 14 °F -13 °F (1985)
Degree Days  
Heating Degree Days 35    
Moisture  
Dew Point 20 °F    
Average Humidity 62    
Maximum Humidity 89    
Minimum Humidity 46    
Precipitation  
Precipitation 0.00 in - - ()
Sea Level Pressure  
Sea Level Pressure 30.08 in    
Wind  
Wind Speed 9 mph (SSW)    
Max Wind Speed 13 mph    
Max Gust Speed -    
Visibility 10 miles    
Events      
Averages and records for this station are not official NWS values.
T = Trace of Precipitation, MM = Missing Value Source: NWS Daily Summary

Daily Weather History Graph

Daily Weather History Graph

Search for Another Location

Airport or City:

Trip Planner

Search our weather history database for the weather conditions in past years. The results will help you decide how hot, cold, wet, or windy it might be!

Date:

Astronomy

Dec. 13, 2012 Rise Set
Actual Time 7:27 AM CST 4:20 PM CST
Civil Twilight 6:54 AM CST 4:53 PM CST
Nautical Twilight 6:17 AM CST 5:30 PM CST
Astronomical Twilight 5:41 AM CST 6:05 PM CST
Moon 7:35 AM CST (12/13) 5:03 PM CST (12/13)
Length of Visible Light 9h 59m
Length of Day
8h 53m
New Moon, 0% of the Moon is Illuminated
Dec 13
New Moon
Dec 19
First Quarter
Dec 28
Full
Jan 4
Last Quarter
Jan 11
New

Hourly Weather History & Observations

Time (CST) Temp. Windchill Dew Point Humidity Pressure Visibility Wind Dir Wind Speed Gust Speed Precip Events Conditions
12:54 AM 36.0 °F 28.0 °F 23.0 °F 59% 30.11 in 10.0 mi SSW 11.5 mph - N/A   Clear
1:54 AM 34.0 °F 26.6 °F 21.9 °F 61% 30.10 in 10.0 mi South 9.2 mph - N/A   Clear
2:54 AM 35.1 °F 26.4 °F 21.0 °F 57% 30.09 in 10.0 mi South 12.7 mph - N/A   Clear
3:54 AM 33.1 °F 24.9 °F 21.0 °F 61% 30.08 in 10.0 mi South 10.4 mph - N/A   Clear
4:54 AM 34.0 °F 25.5 °F 21.0 °F 59% 30.07 in 10.0 mi SSW 11.5 mph - N/A   Clear
5:54 AM 33.1 °F 24.9 °F 21.0 °F 61% 30.07 in 10.0 mi SSW 10.4 mph - N/A   Clear
6:54 AM 33.1 °F 26.9 °F 19.9 °F 59% 30.06 in 10.0 mi South 6.9 mph - N/A   Clear
7:54 AM 30.9 °F 25.2 °F 19.0 °F 61% 30.07 in 10.0 mi South 5.8 mph - N/A   Clear
8:54 AM 32.0 °F 26.4 °F 19.0 °F 59% 30.07 in 10.0 mi South 5.8 mph - N/A   Clear
9:54 AM 36.0 °F 28.5 °F 19.9 °F 52% 30.07 in 10.0 mi SSW 10.4 mph - N/A   Clear
10:54 AM 37.0 °F 29.8 °F 19.9 °F 50% 30.06 in 10.0 mi SW 10.4 mph - N/A   Clear
11:54 AM 39.0 °F 31.8 °F 21.0 °F 49% 30.04 in 10.0 mi SSW 11.5 mph - N/A   Clear
12:54 PM 39.0 °F 32.3 °F 19.9 °F 46% 30.04 in 10.0 mi SSW 10.4 mph - N/A   Clear
1:54 PM 39.9 °F 34.5 °F 21.0 °F 47% 30.04 in 10.0 mi SW 8.1 mph - N/A   Clear
2:54 PM 39.9 °F 33.4 °F 21.0 °F 47% 30.04 in 10.0 mi SSW 10.4 mph - N/A   Clear
3:54 PM 39.0 °F 35.7 °F 19.9 °F 46% 30.06 in 10.0 mi West 4.6 mph - N/A   Clear
7:54 PM 25.0 °F - 19.9 °F 81% 30.13 in 10.0 mi Calm Calm - N/A   Clear
8:54 PM 24.1 °F - 19.9 °F 84% 30.13 in 10.0 mi Calm Calm - N/A   Clear
9:54 PM 23.0 °F - 19.0 °F 85% 30.14 in 9.0 mi Calm Calm - N/A   Clear
10:54 PM 21.9 °F - 19.0 °F 89% 30.15 in 7.0 mi Calm Calm - N/A   Clear
11:54 PM 21.0 °F - 17.1 °F 85% 30.16 in 8.0 mi Calm Calm - N/A   Clear